User: anonymous   Login
Location: Oshawa
(43.9000°N, 78.8670°W)
Time: 08:51:55
(UTC-04:00)
Language:

Iridium 98 - Orbit

View from above orbital plane
View from above orbital plane
View from above satellite
View from above satellite

Ground track
Ground track

The orbit data is extracted from the following two-line orbital elements,

1 27451U 02031B   17265.71019905 +.00000148 +00000-0 +45908-4 0  9991
2 27451 086.3991 341.4221 0002377 083.7763 276.3703 14.34222811805264
Epoch (UTC): 22 September 2017 17:02:41
Eccentricity: 0.0002377
inclination: 86.3991°
perigee height: 776 km
apogee height: 779 km
right ascension of ascending node: 341.4221°
argument of perigee: 83.7763°
revolutions per day: 14.34222811
mean anomaly at epoch: 276.3703°
orbit number at epoch: 80526

The dashed part of the orbit path shows where the satellite is in the earth's shadow,  

DLR